| time (UTC) | temp F | wind direction | speed knots | gust knots | rain 1hr in | rain 24hr in | rain mn in | humidity % | barometer mb |
| 20260831170045 | 63 | 13 | 1.7 | 7.0 | 0.00 | 0.00 | 0.00 | 73 | 1013.7 |
| 20260831164541 | 61 | 92 | 1.7 | 4.3 | 0.00 | 0.00 | 0.00 | 77 | 1013.7 |
| 20260831163038 | 60 | 329 | 1.7 | 8.7 | 0.00 | 0.00 | 0.00 | 79 | 1013.7 |
| 20260831161535 | 58 | 17 | 0.9 | 4.3 | 0.00 | 0.00 | 0.00 | 82 | 1013.7 |
| 20260831160035 | 57 | 325 | 1.7 | 5.2 | 0.00 | 0.00 | 0.00 | 84 | 1014.0 |
| 20260831154527 | 56 | 342 | 2.6 | 4.3 | 0.00 | 0.00 | 0.00 | 86 | 1014.2 |
| 20260831153022 | 55 | 355 | 1.7 | 4.3 | 0.00 | 0.00 | 0.00 | 88 | 1014.1 |
| 20260831151522 | 54 | 61 | 0.0 | 4.3 | 0.00 | 0.00 | 0.00 | 88 | 1014.2 |
| 20260831150021 | 54 | 347 | 1.7 | 3.5 | 0.00 | 0.00 | 0.00 | 89 | 1014.0 |
| 20260831144520 | 53 | 345 | 1.7 | 4.3 | 0.00 | 0.00 | 0.00 | 91 | 1014.0 |
| 20260831143019 | 53 | 355 | 1.7 | 4.3 | 0.00 | 0.00 | 0.00 | 91 | 1014.0 |
| 20260831141518 | 51 | 326 | 1.7 | 3.5 | 0.00 | 0.00 | 0.00 | 93 | 1013.9 |
| 20260831140017 | 50 | 355 | 0.0 | 1.7 | 0.00 | 0.00 | 0.00 | 92 | 1014.0 |
| 20260831134515 | 50 | 355 | 0.9 | 2.6 | 0.00 | 0.00 | 0.00 | 91 | 1014.0 |
| 20260831133017 | 50 | 355 | 0.0 | 0.9 | 0.00 | 0.00 | 0.00 | 90 | 1014.1 |
| 20260831131520 | 51 | 355 | 0.0 | 1.7 | 0.00 | 0.00 | 0.00 | 91 | 1014.0 |
| 20260831130009 | 51 | 355 | 0.0 | 1.7 | 0.00 | 0.00 | 0.00 | 90 | 1014.2 |
| 20260831124508 | 52 | 351 | 1.7 | 2.6 | 0.00 | 0.00 | 0.00 | 90 | 1014.2 |
| 20260831123006 | 52 | 355 | 1.7 | 2.6 | 0.00 | 0.00 | 0.00 | 89 | 1014.4 |
| 20260831121513 | 53 | 355 | 0.0 | 2.6 | 0.00 | 0.00 | 0.00 | 88 | 1014.4 |
| 20260831120007 | 53 | 355 | 1.7 | 4.3 | 0.00 | 0.00 | 0.00 | 88 | 1014.6 |
| 20260831114505 | 53 | 336 | 1.7 | 3.5 | 0.00 | 0.00 | 0.00 | 89 | 1014.6 |
| 20260831113001 | 53 | 355 | 0.9 | 2.6 | 0.00 | 0.00 | 0.00 | 88 | 1014.7 |
| 20260831111602 | 53 | 355 | 1.7 | 2.6 | 0.00 | 0.00 | 0.00 | 89 | 1014.9 |
| 20260831110106 | 53 | 355 | 0.9 | 2.6 | 0.00 | 0.00 | 0.00 | 88 | 1014.9 |
| 20260831104558 | 52 | 351 | 2.6 | 3.5 | 0.00 | 0.00 | 0.00 | 88 | 1015.0 |
| 20260831103055 | 52 | 317 | 1.7 | 2.6 | 0.00 | 0.00 | 0.00 | 89 | 1015.1 |
| 20260831101554 | 52 | 182 | 0.9 | 1.7 | 0.00 | 0.00 | 0.00 | 89 | 1015.2 |
| 20260831100051 | 52 | 182 | 0.0 | 0.0 | 0.00 | 0.00 | 0.00 | 89 | 1015.4 |
| 20260831094550 | 52 | 182 | 0.9 | 2.6 | 0.00 | 0.00 | 0.00 | 89 | 1015.4 |
| 20260831093049 | 53 | 182 | 0.9 | 2.6 | 0.00 | 0.00 | 0.00 | 89 | 1015.6 |
| 20260831091554 | 53 | 182 | 1.7 | 2.6 | 0.00 | 0.00 | 0.00 | 89 | 1016.0 |
| 20260831090043 | 53 | 182 | 0.9 | 1.7 | 0.00 | 0.00 | 0.00 | 89 | 1016.2 |
| 20260831084542 | 53 | 182 | 0.0 | 0.0 | 0.00 | 0.00 | 0.00 | 89 | 1016.3 |
| 20260831083042 | 53 | 182 | 0.0 | 0.0 | 0.00 | 0.00 | 0.00 | 88 | 1016.4 |
| 20260831081539 | 53 | 182 | 0.0 | 0.0 | 0.00 | 0.00 | 0.00 | 88 | 1016.5 |
| 20260831080037 | 54 | 182 | 0.0 | 0.0 | 0.00 | 0.00 | 0.00 | 88 | 1016.6 |
| 20260831074535 | 54 | 182 | 0.0 | 0.9 | 0.00 | 0.00 | 0.00 | 88 | 1016.7 |
| 20260831073031 | 54 | 182 | 0.0 | 0.9 | 0.00 | 0.00 | 0.00 | 87 | 1017.0 |
| 20260831071533 | 54 | 182 | 0.0 | 0.0 | 0.00 | 0.00 | 0.00 | 86 | 1017.0 |
| 20260831070030 | 54 | 182 | 0.0 | 0.9 | 0.00 | 0.00 | 0.00 | 86 | 1017.0 |
| 20260831064528 | 55 | 182 | 0.0 | 0.0 | 0.00 | 0.00 | 0.00 | 86 | 1017.0 |
| 20260831063027 | 55 | 182 | 0.0 | 0.0 | 0.00 | 0.00 | 0.00 | 85 | 1017.2 |
| 20260831061526 | 55 | 182 | 0.0 | 0.9 | 0.00 | 0.00 | 0.00 | 86 | 1017.3 |
| 20260831060026 | 55 | 182 | 0.0 | 0.9 | 0.00 | 0.00 | 0.00 | 85 | 1017.4 |
| 20260831054524 | 56 | 182 | 0.0 | 0.9 | 0.00 | 0.00 | 0.00 | 85 | 1017.5 |
| 20260831053023 | 56 | 182 | 0.0 | 0.9 | 0.00 | 0.00 | 0.00 | 85 | 1017.6 |
| 20260831051524 | 56 | 182 | 0.0 | 0.0 | 0.00 | 0.00 | 0.00 | 85 | 1017.6 |
| 20260831050022 | 57 | 182 | 0.0 | 1.7 | 0.00 | 0.00 | 0.00 | 85 | 1017.8 |
| 20260831044519 | 57 | 182 | 0.0 | 0.9 | 0.00 | 0.00 | 0.00 | 84 | 1017.8 |
| 20260831043018 | 58 | 182 | 0.0 | 0.0 | 0.00 | 0.00 | 0.00 | 83 | 1018.1 |
| 20260831041541 | 59 | 182 | 0.0 | 0.0 | 0.00 | 0.00 | 0.00 | 81 | 1018.1 |
| 20260831040018 | 59 | 182 | 0.0 | 0.9 | 0.00 | 0.00 | 0.00 | 80 | 1018.2 |
| 20260831034517 | 60 | 182 | 0.0 | 0.0 | 0.00 | 0.00 | 0.00 | 78 | 1018.1 |
| 20260831033022 | 61 | 182 | 0.0 | 0.0 | 0.00 | 0.00 | 0.00 | 75 | 1017.9 |
| 20260831031515 | 62 | 182 | 0.0 | 0.0 | 0.00 | 0.00 | 0.00 | 74 | 1017.9 |
| 20260831030016 | 63 | 182 | 0.0 | 0.0 | 0.00 | 0.00 | 0.00 | 72 | 1017.9 |
| 20260831024515 | 63 | 182 | 0.0 | 0.0 | 0.00 | 0.00 | 0.00 | 74 | 1017.9 |
| 20260831023014 | 64 | 182 | 0.0 | 0.0 | 0.00 | 0.00 | 0.00 | 73 | 1018.0 |
| 20260831021519 | 64 | 182 | 0.0 | 1.7 | 0.00 | 0.00 | 0.00 | 72 | 1018.1 |
| 20260831020014 | 64 | 182 | 0.0 | 2.6 | 0.00 | 0.00 | 0.00 | 71 | 1018.1 |
| 20260831014519 | 64 | 213 | 0.0 | 1.7 | 0.00 | 0.00 | 0.00 | 71 | 1018.1 |
| 20260831013010 | 64 | 212 | 0.0 | 2.6 | 0.00 | 0.00 | 0.00 | 69 | 1018.2 |
| 20260831011512 | 64 | 211 | 0.0 | 1.7 | 0.00 | 0.00 | 0.00 | 70 | 1018.3 |
| 20260831010009 | 64 | 160 | 0.0 | 4.3 | 0.00 | 0.00 | 0.00 | 69 | 1018.5 |
| 20260831004508 | 64 | 176 | 0.9 | 7.0 | 0.00 | 0.00 | 0.00 | 68 | 1018.5 |
| 20260831003007 | 64 | 161 | 0.0 | 4.3 | 0.00 | 0.00 | 0.00 | 69 | 1018.6 |
| 20260831001507 | 65 | 155 | 0.0 | 3.5 | 0.00 | 0.00 | 0.00 | 70 | 1018.7 |
| 20260831000006 | 65 | 213 | 0.0 | 2.6 | 0.00 | 0.00 | 0.00 | 70 | 1019.0 |
| 20260830234510 | 65 | 217 | 0.0 | 4.3 | 0.00 | 0.00 | 0.00 | 68 | 1019.1 |
| 20260830233014 | 65 | 198 | 0.0 | 1.7 | 0.00 | 0.00 | 0.00 | 68 | 1019.1 |
| 20260830231504 | 65 | 188 | 0.9 | 4.3 | 0.00 | 0.00 | 0.00 | 67 | 1019.3 |
| 20260830230007 | 65 | 186 | 2.6 | 5.2 | 0.00 | 0.00 | 0.00 | 67 | 1019.1 |
| 20260830224503 | 65 | 191 | 1.7 | 4.3 | 0.00 | 0.00 | 0.00 | 69 | 1019.3 |
| 20260830223002 | 65 | 185 | 2.6 | 6.1 | 0.00 | 0.00 | 0.00 | 70 | 1019.4 |
| 20260830221506 | 65 | 166 | 1.7 | 7.0 | 0.00 | 0.00 | 0.00 | 70 | 1019.4 |
| 20260830220002 | 65 | 160 | 0.9 | 7.0 | 0.00 | 0.00 | 0.00 | 69 | 1019.6 |
| 20260830214601 | 66 | 188 | 1.7 | 7.0 | 0.00 | 0.00 | 0.00 | 68 | 1019.6 |
| 20260830214500 | 66 | 167 | 1.7 | 7.0 | 0.00 | 0.00 | 0.00 | 69 | 1019.6 |
| 20260830213058 | 66 | 193 | 2.6 | 7.0 | 0.00 | 0.00 | 0.00 | 66 | 1019.7 |
| 20260830211601 | 65 | 184 | 2.6 | 7.0 | 0.00 | 0.00 | 0.00 | 70 | 1019.9 |
| 20260830210057 | 65 | 165 | 2.6 | 6.1 | 0.00 | 0.00 | 0.00 | 69 | 1019.8 |
| 20260830204554 | 65 | 186 | 0.9 | 6.1 | 0.00 | 0.00 | 0.00 | 71 | 1019.7 |
| 20260830203053 | 64 | 194 | 1.7 | 6.1 | 0.00 | 0.00 | 0.00 | 72 | 1019.7 |
| 20260830201552 | 63 | 187 | 1.7 | 7.8 | 0.00 | 0.00 | 0.00 | 72 | 1019.9 |
| 20260830200052 | 64 | 182 | 2.6 | 11.3 | 0.00 | 0.00 | 0.00 | 72 | 1019.8 |
| 20260830194603 | 65 | 184 | 1.7 | 6.1 | 0.00 | 0.01 | 0.00 | 71 | 1019.8 |
| 20260830193101 | 65 | 190 | 1.7 | 8.7 | 0.00 | 0.01 | 0.00 | 70 | 1019.8 |
| 20260830191546 | 63 | 159 | 2.6 | 7.0 | 0.00 | 0.01 | 0.00 | 73 | 1019.9 |
| 20260830190045 | 63 | 191 | 2.6 | 8.7 | 0.00 | 0.01 | 0.00 | 73 | 1020.0 |
| 20260830184643 | 62 | 171 | 1.7 | 7.0 | 0.00 | 0.01 | 0.00 | 74 | 1020.0 |
| 20260830183045 | 62 | 178 | 4.3 | 9.6 | 0.00 | 0.01 | 0.00 | 73 | 1020.1 |
| 20260830181539 | 62 | 158 | 2.6 | 9.6 | 0.00 | 0.01 | 0.00 | 75 | 1020.2 |
| 20260830180034 | 61 | 199 | 1.7 | 8.7 | 0.00 | 0.01 | 0.00 | 77 | 1020.0 |
| 20260830174538 | 60 | 189 | 4.3 | 8.7 | 0.00 | 0.01 | 0.00 | 77 | 1020.0 |
| 20260830173033 | 61 | 144 | 2.6 | 8.7 | 0.00 | 0.01 | 0.00 | 76 | 1020.0 |
| 20260830171535 | 60 | 309 | 1.7 | 9.6 | 0.00 | 0.01 | 0.00 | 77 | 1019.9 |